Weather History for KABI - March, 2012

Change the Weather History Date:

Tuesday, March 20, 2012

  Actual Average Record
Temperature  
Mean Temperature 52 °F 58 °F  
Max Temperature 62 °F 70 °F 94 °F (1916)
Min Temperature 41 °F 45 °F 15 °F (1965)
Degree Days  
Heating Degree Days 13 9  
Month to date heating degree days 128 217  
Since 1 July heating degree days 2038 2350  
Cooling Degree Days 0 1  
Month to date cooling degree days 26 15  
Year to date cooling degree days 32 20  
Growing Degree Days 3 (Base 50)    
Moisture  
Dew Point 35 °F    
Average Humidity 50    
Maximum Humidity 77    
Minimum Humidity 22    
Precipitation  
Precipitation T in 0.06 in 1.03 in (1968)
Month to date precipitation 1.17 1.13  
Year to date precipitation 5.64 3.51  
Sea Level Pressure  
Sea Level Pressure 29.74 in    
Wind  
Wind Speed 8 mph (SSW)    
Max Wind Speed 21 mph    
Max Gust Speed 29 mph    
Visibility 10 miles    
Events Rain    
T = Trace of Precipitation, MM = Missing Value Source: NWS Daily Summary

Daily Weather History Graph

Daily Weather History Graph

Search for Another Location

Airport or City:

Trip Planner

Search our weather history database for the weather conditions in past years. The results will help you decide how hot, cold, wet, or windy it might be!

Date:

Astronomy

Mar. 20, 2012 Rise Set
Actual Time 7:41 AM CDT 7:50 PM CDT
Civil Twilight 7:17 AM CDT 8:15 PM CDT
Nautical Twilight 6:48 AM CDT 8:43 PM CDT
Astronomical Twilight 6:19 AM CDT 9:12 PM CDT
Moon 6:20 AM CDT (3/20) 6:23 PM CDT (3/20)
Length of Visible Light 12h 57m
Length of Day
12h 08m
Waning Crescent, 4% of the Moon is Illuminated
Mar 20
Waning Crescent
Mar 22
New
Mar 30
First Quarter
Apr 6
Full
Apr 13
Last Quarter

Hourly Weather History & Observations

Time (CDT) Temp. Windchill Dew Point Humidity Pressure Visibility Wind Dir Wind Speed Gust Speed Precip Events Conditions
12:52 AM 53.1 °F - 44.1 °F 71% 29.73 in 10.0 mi East 6.9 mph - N/A   Overcast
1:52 AM 53.1 °F - 45.0 °F 74% 29.73 in 10.0 mi WNW 4.6 mph - N/A   Overcast
2:52 AM 54.0 °F - 42.1 °F 64% 29.68 in 10.0 mi North 5.8 mph - 0.00 in Rain Light Rain
3:52 AM 52.0 °F - 45.0 °F 77% 29.69 in 10.0 mi ESE 4.6 mph - 0.00 in   Overcast
4:52 AM 51.1 °F - 44.1 °F 77% 29.68 in 10.0 mi SSE 5.8 mph - N/A   Overcast
5:52 AM 51.1 °F - 44.1 °F 77% 29.70 in 10.0 mi SSE 5.8 mph - N/A   Overcast
6:52 AM 51.1 °F - 39.0 °F 63% 29.72 in 10.0 mi SSE 4.6 mph - N/A   Mostly Cloudy
7:52 AM 48.0 °F - 39.9 °F 74% 29.73 in 10.0 mi South 5.8 mph - N/A   Overcast
8:52 AM 50.0 °F - 42.1 °F 74% 29.76 in 10.0 mi South 8.1 mph - N/A   Overcast
9:52 AM 51.1 °F - 37.0 °F 59% 29.78 in 10.0 mi SW 4.6 mph - N/A   Scattered Clouds
10:52 AM 54.0 °F - 34.0 °F 47% 29.78 in 10.0 mi SSW 9.2 mph - N/A   Mostly Cloudy
11:52 AM 55.0 °F - 37.0 °F 51% 29.77 in 10.0 mi SSW 13.8 mph - N/A   Scattered Clouds
12:52 PM 57.0 °F - 37.9 °F 49% 29.75 in 10.0 mi SSW 10.4 mph - N/A   Clear
1:52 PM 57.9 °F - 35.1 °F 42% 29.73 in 10.0 mi SSW 13.8 mph 28.8 mph N/A   Scattered Clouds
2:52 PM 59.0 °F - 30.9 °F 35% 29.70 in 10.0 mi SSW 11.5 mph 25.3 mph N/A   Scattered Clouds
3:52 PM 59.0 °F - 26.1 °F 28% 29.70 in 10.0 mi WSW 9.2 mph 19.6 mph N/A   Overcast
4:52 PM 60.1 °F - 24.1 °F 25% 29.70 in 10.0 mi West 16.1 mph 19.6 mph N/A   Mostly Cloudy
5:52 PM 59.0 °F - 23.0 °F 25% 29.71 in 10.0 mi West 11.5 mph - N/A   Scattered Clouds
6:52 PM 60.1 °F - 21.9 °F 23% 29.73 in 10.0 mi West 13.8 mph - N/A   Partly Cloudy
7:52 PM 55.0 °F - 28.0 °F 35% 29.76 in 10.0 mi SW 8.1 mph - N/A   Mostly Cloudy
8:52 PM 53.1 °F - 27.0 °F 37% 29.78 in 10.0 mi WSW 5.8 mph - N/A   Partly Cloudy
9:52 PM 48.9 °F - 30.9 °F 50% 29.79 in 10.0 mi SSW 5.8 mph - N/A   Partly Cloudy
10:52 PM 46.9 °F - 33.1 °F 59% 29.81 in 10.0 mi SW 3.5 mph - N/A   Clear
11:52 PM 43.0 °F 39.5 °F 33.1 °F 68% 29.81 in 10.0 mi South 5.8 mph - N/A   Clear